Home > Weather > Osterode am Harz > Past weeks

Flag for Germany Past Weather in Osterode am Harz, Lower Saxony, Germany — Yesterday and Last 2 Weeks

Now
57 °F

Clear.


Feels Like: 56 °F
Forecast: 58 / 71 °F
Wind: 7 mph from Northeast

Location: Hannover

Current Time: May 28, 2016 at 2:17:02 AM

Latest Report: May 28, 2016 at 1:20 AM


Visibility: 10 mi

Pressure: 30.01 "Hg

Humidity: 88%

Dew Point: 54 °F

Location of Osterode am HarzLocation

Past Weather in Osterode am Harz — Graph

°F

Osterode am Harz Temperature Yesterday

Maximum temperature yesterday: 72 °F (at 3:50 PM)
Minimum temperature yesterday: 50 °F (at 1:50 AM)
Average temperature yesterday: 60 °F

High & Low Weather Summary for the Past Weeks

 TemperatureHumidityPressure
High81 °F (May 22, 2:20 PM)100% (May 15, 1:50 AM)30.07 "Hg (May 15, 1:50 AM)
Low39 °F (May 16, 5:20 AM)28% (May 13, 11:50 AM)29.59 "Hg (May 13, 1:20 AM)
Average56 °F77%29.90 "Hg
* Reported May 13 1:20 AM — May 28 1:20 AM, Osterode am Harz, Weather by CustomWeather, © 2016

Note: Actual official high and low records may vary slightly from our data, if they occured in-between our weather recording intervals... More about our weather records

Advertising

Osterode am Harz Weather History for the Previous 24 Hours

Scroll right to see more
 ConditionsComfort  
Time TempWeatherWind HumidityBarometerVisibility
1:20 AM
Sat, May 28
57 °FClear.7 mph88%30.01 "Hg10 mi
12:50 AM57 °FClear.6 mph88%30.01 "Hg10 mi
12:20 AM59 °FClear.3 mph88%30.01 "Hg10 mi
11:50 PM
Fri, May 27
59 °FPassing clouds.5 mph82%30.01 "HgN/A
11:20 PM59 °FClear.5 mph82%30.01 "Hg10 mi
10:50 PM63 °FClear.5 mph77%30.01 "Hg10 mi
10:20 PM61 °FSunny.5 mph83%30.01 "Hg10 mi
9:50 PM61 °FSunny.5 mph83%30.01 "Hg10 mi
9:20 PM64 °FSunny.5 mph73%30.01 "Hg10 mi
8:50 PM64 °FSunny.5 mph78%30.01 "Hg10 mi
8:20 PM68 °FPassing clouds.7 mph64%29.98 "HgN/A
7:50 PM68 °FPassing clouds.8 mph64%29.98 "HgN/A
7:20 PM70 °FPassing clouds.7 mph53%29.98 "HgN/A
6:50 PM70 °FPassing clouds.7 mph53%29.98 "HgN/A
6:20 PM70 °FPassing clouds.7 mph57%29.98 "HgN/A
5:50 PM70 °FScattered clouds.6 mph57%29.98 "HgN/A
5:20 PM70 °FScattered clouds.6 mph57%30.01 "HgN/A
4:50 PM70 °FScattered clouds.9 mph57%30.01 "HgN/A
4:20 PM70 °FScattered clouds.5 mph57%30.01 "HgN/A
3:50 PM72 °FScattered clouds.6 mph57%30.01 "HgN/A
3:20 PM70 °FScattered clouds.6 mph57%30.01 "HgN/A
2:50 PM68 °FScattered clouds.6 mph64%30.01 "HgN/A
2:20 PM68 °FPartly sunny.7 mph64%30.01 "HgN/A
1:50 PM68 °FPartly sunny.6 mph69%30.04 "HgN/A
1:20 PM66 °FBroken clouds.6 mph68%30.04 "HgN/A
12:50 PM66 °FBroken clouds.5 mph73%30.04 "HgN/A
12:20 PM64 °FBroken clouds.7 mph78%30.04 "HgN/A
11:50 AM64 °FBroken clouds.7 mph78%30.04 "Hg6 mi
11:20 AM63 °FBroken clouds.6 mph83%30.04 "Hg4 mi
10:50 AM61 °FPartly sunny.5 mph88%30.04 "Hg4 mi
10:20 AM59 °FPartly sunny.5 mph94%30.04 "Hg4 mi
9:50 AM59 °FBroken clouds.6 mph94%30.04 "Hg4 mi
9:20 AM57 °FFog.6 mph100%30.04 "Hg3 mi
8:50 AM55 °FFog.6 mph100%30.04 "Hg2 mi
8:20 AM54 °FFog.6 mph100%30.04 "Hg1 mi
7:50 AM52 °FFog.5 mph100%30.04 "Hg0 mi
7:20 AM52 °FFog.6 mph100%30.04 "Hg0 mi
6:50 AM50 °FFog.3 mph100%30.04 "Hg0 mi
6:20 AM50 °FCool.3 mph100%30.04 "Hg2 mi
5:50 AM50 °FCool.2 mph100%30.04 "Hg2 mi
5:20 AM50 °FCool.2 mph100%30.04 "Hg2 mi
4:50 AM50 °FFog.2 mph100%30.04 "Hg3 mi
4:20 AM50 °FFog.5 mph100%30.04 "Hg3 mi
3:50 AM50 °FFog.3 mph100%30.04 "Hg3 mi
3:20 AM52 °FFog.3 mph100%30.04 "Hg4 mi
2:50 AM50 °FFog.3 mph100%30.01 "Hg4 mi
2:20 AM50 °FFog.3 mph100%30.04 "Hg3 mi
Weather by CustomWeather, © 2016

See weather overviewHow to use our weather pages